Tracking 27107 objects as of 21-Mar-2023
HD Live streaming from Space Station
objects crossing your sky now

FORMOSAT7-3/COSMIC2-3

Track FORMOSAT7-3/COSMIC2-3 now!
10-day predictions


NORAD ID: 44343
Int'l Code: 2019-036E
Perigee: 528.6 km
Apogee: 541.7 km
Inclination: 24.0 °
Period: 95.2 minutes
Semi major axis: 6906 km
RCS: Unknown
Launch date: June 25, 2019
Source: Taiwan (Republic of China) (ROC)
Launch site: AIR FORCE EASTERN TEST RANGE (AFETR)
Your satellite tracking list
Your tracking list is empty




NASA's NSSDC Master Catalog

Two Line Element Set (TLE):
1 44343U 19036E   23079.25608180  .00010284  00000-0  55093-3 0  9998
2 44343  24.0014  45.0484 0009496  58.2866 301.8564 15.12677017204032
Source of the keplerian elements: AFSPC